Location: Ciula Mare
(45.6000°N, 22.8167°E)
Time: 11:24:14
(UTC+00:00)

Cosmos 1709 Rocket - Pass Details

Date: 03 February 2023
Orbit: 947 x 1002 km, 82.9° (Epoch: 21 March)

Event Time Altitude Azimuth Distance (km) Brightness Sun altitude
Rises 17:47:57 0° 353° (N) 3,656 7.1 -23.0°
Reaches altitude 10° 17:50:31 10° 357° (N) 2,699 6.3 -23.5°
Maximum altitude 17:56:38 65° 79° (E) 1,045 3.8 -24.5°
Enters shadow 17:58:27 45° 140° (SE) 1,278 4.3 -24.9°
